Time,TemperatureF,DewpointF,PressureIn,WindDirection,WindDirectionDegrees,WindSpeedMPH,WindSpeedGustMPH,Humidity,HourlyPrecipIn,Conditions,Clouds,dailyrainin,SoftwareType,DateUTC
2013-09-08 00:08:00,70.6,66.0,29.91,SE,127,0.0,1.0,86,0.00,,,0.00,weatherlink.com 1.10,2013-09-08 04:08:00,
2013-09-08 00:23:00,70.3,67.0,29.91,SE,127,0.0,0.0,88,0.00,,,0.00,weatherlink.com 1.10,2013-09-08 04:23:00,
2013-09-08 00:38:00,70.3,67.0,29.91,SE,127,0.0,1.0,88,0.00,,,0.00,weatherlink.com 1.10,2013-09-08 04:38:00,
2013-09-08 00:53:00,70.0,66.0,29.91,SE,127,0.0,1.0,88,0.00,,,0.00,weatherlink.com 1.10,2013-09-08 04:53:00,
2013-09-08 01:08:00,69.8,67.0,29.91,SE,127,0.0,0.0,89,0.00,,,0.00,weatherlink.com 1.10,2013-09-08 05:08:00,
2013-09-08 01:23:00,69.5,67.0,29.91,SE,127,0.0,1.0,90,0.00,,,0.00,weatherlink.com 1.10,2013-09-08 05:23:00,
2013-09-08 01:39:00,68.9,66.0,29.91,SE,127,0.0,0.0,90,0.00,,,0.00,weatherlink.com 1.10,2013-09-08 05:39:00,
2013-09-08 01:54:00,68.6,66.0,29.91,SE,127,0.0,0.0,91,0.00,,,0.00,weatherlink.com 1.10,2013-09-08 05:54:00,
2013-09-08 02:09:00,68.6,66.0,29.91,SE,127,0.0,1.0,91,0.00,,,0.00,weatherlink.com 1.10,2013-09-08 06:09:00,
2013-09-08 02:24:00,68.5,66.0,29.91,SE,127,0.0,0.0,91,0.00,,,0.00,weatherlink.com 1.10,2013-09-08 06:24:00,
2013-09-08 02:39:00,68.1,65.0,29.91,SE,127,0.0,0.0,91,0.00,,,0.00,weatherlink.com 1.10,2013-09-08 06:39:00,
2013-09-08 02:54:00,67.5,65.0,29.90,SE,127,0.0,1.0,92,0.00,,,0.00,weatherlink.com 1.10,2013-09-08 06:54:00,
2013-09-08 03:09:00,66.7,64.0,29.90,SE,127,0.0,0.0,92,0.00,,,0.00,weatherlink.com 1.10,2013-09-08 07:09:00,
2013-09-08 03:24:00,66.0,64.0,29.90,SE,127,0.0,0.0,93,0.00,,,0.00,weatherlink.com 1.10,2013-09-08 07:24:00,
2013-09-08 03:39:00,65.8,64.0,29.90,SE,127,0.0,0.0,94,0.00,,,0.00,weatherlink.com 1.10,2013-09-08 07:39:00,
2013-09-08 03:54:00,65.4,64.0,29.90,SE,127,0.0,0.0,94,0.00,,,0.00,weatherlink.com 1.10,2013-09-08 07:54:00,
2013-09-08 04:09:00,64.6,63.0,29.90,SE,127,0.0,0.0,94,0.00,,,0.00,weatherlink.com 1.10,2013-09-08 08:09:00,
2013-09-08 04:24:00,64.8,63.0,29.90,SE,127,0.0,0.0,95,0.00,,,0.00,weatherlink.com 1.10,2013-09-08 08:24:00,
2013-09-08 04:39:00,65.0,64.0,29.91,SE,127,0.0,0.0,95,0.00,,,0.00,weatherlink.com 1.10,2013-09-08 08:39:00,
2013-09-08 04:54:00,65.5,64.0,29.92,NNE,20,0.0,2.0,95,0.00,,,0.00,weatherlink.com 1.10,2013-09-08 08:54:00,
2013-09-08 05:09:00,66.1,65.0,29.91,NNE,20,0.0,1.0,95,0.00,,,0.00,weatherlink.com 1.10,2013-09-08 09:09:00,
2013-09-08 05:24:00,65.6,64.0,29.91,NNE,20,0.0,0.0,94,0.00,,,0.00,weatherlink.com 1.10,2013-09-08 09:24:00,
2013-09-08 05:39:00,64.8,63.0,29.92,NNE,20,0.0,0.0,94,0.00,,,0.00,weatherlink.com 1.10,2013-09-08 09:39:00,
2013-09-08 05:54:00,64.9,64.0,29.93,NNE,20,0.0,0.0,95,0.00,,,0.00,weatherlink.com 1.10,2013-09-08 09:54:00,
2013-09-08 06:09:00,64.8,63.0,29.93,NNE,20,0.0,0.0,95,0.00,,,0.00,weatherlink.com 1.10,2013-09-08 10:09:00,
2013-09-08 06:24:00,64.6,63.0,29.93,NNE,20,0.0,1.0,95,0.00,,,0.00,weatherlink.com 1.10,2013-09-08 10:24:00,
2013-09-08 06:39:00,64.4,63.0,29.94,NNE,20,0.0,0.0,95,0.00,,,0.00,weatherlink.com 1.10,2013-09-08 10:39:00,
2013-09-08 06:54:00,63.9,63.0,29.94,NNE,20,0.0,0.0,95,0.00,,,0.00,weatherlink.com 1.10,2013-09-08 10:54:00,
2013-09-08 07:09:00,64.3,63.0,29.94,NNE,20,0.0,0.0,96,0.00,,,0.00,weatherlink.com 1.10,2013-09-08 11:09:00,
2013-09-08 07:24:00,65.0,64.0,29.94,NNE,20,0.0,1.0,96,0.00,,,0.00,weatherlink.com 1.10,2013-09-08 11:24:00,
2013-09-08 07:39:00,65.2,64.0,29.95,NNE,22,0.0,1.0,96,0.00,,,0.00,weatherlink.com 1.10,2013-09-08 11:39:00,
2013-09-08 07:54:00,65.8,65.0,29.95,NNE,25,0.0,4.0,96,0.00,,,0.00,weatherlink.com 1.10,2013-09-08 11:54:00,
2013-09-08 08:09:00,66.7,65.0,29.96,NNE,27,0.0,2.0,95,0.00,,,0.00,weatherlink.com 1.10,2013-09-08 12:09:00,
2013-09-08 08:24:00,67.9,66.0,29.96,NE,43,2.0,4.0,93,0.00,,,0.00,weatherlink.com 1.10,2013-09-08 12:24:00,
2013-09-08 08:39:00,69.1,66.0,29.96,NNE,15,2.0,6.0,90,0.00,,,0.00,weatherlink.com 1.10,2013-09-08 12:39:00,
2013-09-08 08:54:00,70.0,66.0,29.96,NE,39,2.0,4.0,88,0.00,,,0.00,weatherlink.com 1.10,2013-09-08 12:54:00,
2013-09-08 09:09:00,70.2,66.0,29.97,NNW,342,2.0,6.0,87,0.00,,,0.00,weatherlink.com 1.10,2013-09-08 13:09:00,
2013-09-08 09:24:00,69.7,66.0,29.97,North,360,2.0,6.0,88,0.00,,,0.00,weatherlink.com 1.10,2013-09-08 13:24:00,
2013-09-08 09:39:00,69.0,66.0,29.98,NE,52,4.0,6.0,89,0.00,,,0.00,weatherlink.com 1.10,2013-09-08 13:39:00,
2013-09-08 09:54:00,68.2,66.0,29.98,NNW,339,1.0,6.0,91,0.00,,,0.00,weatherlink.com 1.10,2013-09-08 13:54:00,
2013-09-08 10:09:00,68.1,65.0,29.98,ENE,76,4.0,7.0,91,0.00,,,0.00,weatherlink.com 1.10,2013-09-08 14:09:00,
2013-09-08 10:25:00,68.3,66.0,29.99,NE,54,3.0,8.0,91,0.00,,,0.00,weatherlink.com 1.10,2013-09-08 14:25:00,
2013-09-08 10:40:00,69.0,66.0,29.99,East,94,2.0,5.0,91,0.00,,,0.00,weatherlink.com 1.10,2013-09-08 14:40:00,
2013-09-08 10:55:00,69.9,67.0,29.99,NE,40,8.0,8.0,89,0.00,,,0.00,weatherlink.com 1.10,2013-09-08 14:55:00,
2013-09-08 11:10:00,70.7,67.0,29.99,WNW,303,1.0,6.0,88,0.00,,,0.00,weatherlink.com 1.10,2013-09-08 15:10:00,
2013-09-08 11:25:00,71.6,67.0,29.99,North,356,2.0,5.0,86,0.00,,,0.00,weatherlink.com 1.10,2013-09-08 15:25:00,
2013-09-08 11:40:00,72.8,68.0,29.98,NNW,344,5.0,5.0,84,0.00,,,0.00,weatherlink.com 1.10,2013-09-08 15:40:00,
2013-09-08 11:55:00,73.5,68.0,29.98,East,97,1.0,4.0,83,0.00,,,0.00,weatherlink.com 1.10,2013-09-08 15:55:00,
2013-09-08 12:10:00,73.5,68.0,29.99,North,11,3.0,6.0,82,0.00,,,0.00,weatherlink.com 1.10,2013-09-08 16:10:00,
2013-09-08 12:25:00,74.3,68.0,29.99,ENE,60,2.0,6.0,81,0.00,,,0.00,weatherlink.com 1.10,2013-09-08 16:25:00,
2013-09-08 12:40:00,74.2,68.0,29.99,NNE,19,3.0,6.0,81,0.00,,,0.00,weatherlink.com 1.10,2013-09-08 16:40:00,
2013-09-08 12:55:00,74.4,68.0,29.99,East,86,1.0,5.0,81,0.00,,,0.00,weatherlink.com 1.10,2013-09-08 16:55:00,
2013-09-08 13:10:00,75.2,68.0,29.98,NNE,27,1.0,5.0,79,0.00,,,0.00,weatherlink.com 1.10,2013-09-08 17:10:00,
2013-09-08 13:25:00,75.0,68.0,29.98,NNE,25,3.0,5.0,79,0.00,,,0.00,weatherlink.com 1.10,2013-09-08 17:25:00,
2013-09-08 13:40:00,74.9,68.0,29.99,NE,34,0.0,4.0,79,0.00,,,0.00,weatherlink.com 1.10,2013-09-08 17:40:00,
2013-09-08 13:55:00,74.9,68.0,29.99,NE,37,4.0,6.0,79,0.00,,,0.00,weatherlink.com 1.10,2013-09-08 17:55:00,
2013-09-08 14:10:00,74.8,68.0,29.99,NW,309,1.0,6.0,79,0.00,,,0.00,weatherlink.com 1.10,2013-09-08 18:10:00,
2013-09-08 14:25:00,74.9,68.0,29.99,NE,34,7.0,9.0,79,0.00,,,0.00,weatherlink.com 1.10,2013-09-08 18:25:00,
2013-09-08 14:40:00,75.2,68.0,29.99,ENE,77,0.0,8.0,78,0.00,,,0.00,weatherlink.com 1.10,2013-09-08 18:40:00,
2013-09-08 14:55:00,75.1,68.0,29.99,ENE,62,3.0,8.0,78,0.00,,,0.00,weatherlink.com 1.10,2013-09-08 18:55:00,
2013-09-08 15:10:00,74.5,68.0,29.98,NNE,22,0.0,5.0,79,0.00,,,0.00,weatherlink.com 1.10,2013-09-08 19:10:00,
2013-09-08 15:25:00,73.2,67.0,29.98,East,84,4.0,8.0,81,0.00,,,0.00,weatherlink.com 1.10,2013-09-08 19:25:00,
2013-09-08 15:40:00,71.3,66.0,29.98,ENE,62,3.0,10.0,83,0.00,,,0.00,weatherlink.com 1.10,2013-09-08 19:40:00,
2013-09-08 15:55:00,71.3,66.0,29.98,ENE,58,2.0,7.0,84,0.00,,,0.00,weatherlink.com 1.10,2013-09-08 19:55:00,
2013-09-08 16:10:00,72.6,67.0,29.98,NNE,25,3.0,9.0,81,0.00,,,0.00,weatherlink.com 1.10,2013-09-08 20:10:00,
2013-09-08 16:25:00,72.3,66.0,29.98,South,188,0.0,6.0,81,0.00,,,0.00,weatherlink.com 1.10,2013-09-08 20:25:00,
2013-09-08 16:40:00,72.6,67.0,29.98,ESE,108,2.0,7.0,81,0.00,,,0.00,weatherlink.com 1.10,2013-09-08 20:40:00,
2013-09-08 16:55:00,73.7,67.0,29.97,NNW,335,2.0,9.0,79,0.00,,,0.00,weatherlink.com 1.10,2013-09-08 20:55:00,
2013-09-08 17:10:00,75.1,67.0,29.97,ENE,74,2.0,7.0,76,0.00,,,0.00,weatherlink.com 1.10,2013-09-08 21:10:00,
2013-09-08 17:25:00,75.9,67.0,29.96,NNW,345,2.0,7.0,74,0.00,,,0.00,weatherlink.com 1.10,2013-09-08 21:25:00,
2013-09-08 17:40:00,76.0,67.0,29.96,North,11,2.0,7.0,74,0.00,,,0.00,weatherlink.com 1.10,2013-09-08 21:40:00,
2013-09-08 17:55:00,75.2,67.0,29.96,ESE,121,4.0,7.0,75,0.00,,,0.00,weatherlink.com 1.10,2013-09-08 21:55:00,
2013-09-08 18:10:00,74.6,66.0,29.96,ESE,105,4.0,8.0,75,0.00,,,0.00,weatherlink.com 1.10,2013-09-08 22:10:00,
2013-09-08 18:25:00,74.3,66.0,29.96,NNE,17,3.0,8.0,76,0.00,,,0.00,weatherlink.com 1.10,2013-09-08 22:25:00,
2013-09-08 18:40:00,74.2,66.0,29.96,North,3,3.0,4.0,76,0.00,,,0.00,weatherlink.com 1.10,2013-09-08 22:40:00,
2013-09-08 18:55:00,74.1,66.0,29.96,East,90,0.0,5.0,76,0.00,,,0.00,weatherlink.com 1.10,2013-09-08 22:55:00,
2013-09-08 19:10:00,73.9,66.0,29.96,NNE,21,0.0,3.0,76,0.00,,,0.00,weatherlink.com 1.10,2013-09-08 23:10:00,
2013-09-08 19:25:00,73.4,66.0,29.96,NE,44,1.0,4.0,77,0.00,,,0.00,weatherlink.com 1.10,2013-09-08 23:25:00,
2013-09-08 19:40:00,72.9,66.0,29.95,East,84,0.0,2.0,78,0.00,,,0.00,weatherlink.com 1.10,2013-09-08 23:40:00,
2013-09-08 19:55:00,72.3,66.0,29.95,North,9,0.0,1.0,80,0.00,,,0.00,weatherlink.com 1.10,2013-09-08 23:55:00,
2013-09-08 20:10:00,71.7,66.0,29.96,SE,136,0.0,2.0,81,0.00,,,0.00,weatherlink.com 1.10,2013-09-09 00:10:00,
2013-09-08 20:25:00,71.3,65.0,29.96,NNW,341,0.0,1.0,81,0.00,,,0.00,weatherlink.com 1.10,2013-09-09 00:25:00,
2013-09-08 20:40:00,71.0,65.0,29.97,East,83,1.0,4.0,82,0.00,,,0.00,weatherlink.com 1.10,2013-09-09 00:40:00,
2013-09-08 20:55:00,70.6,65.0,29.97,East,93,0.0,3.0,82,0.00,,,0.00,weatherlink.com 1.10,2013-09-09 00:55:00,
2013-09-08 21:10:00,70.1,64.0,29.97,East,80,1.0,6.0,82,0.00,,,0.00,weatherlink.com 1.10,2013-09-09 01:10:00,
2013-09-08 21:25:00,69.6,64.0,29.97,East,101,0.0,3.0,82,0.00,,,0.00,weatherlink.com 1.10,2013-09-09 01:25:00,
2013-09-08 21:40:00,69.1,64.0,29.97,SSE,165,0.0,3.0,83,0.00,,,0.00,weatherlink.com 1.10,2013-09-09 01:40:00,
2013-09-08 21:55:00,68.6,64.0,29.97,SSW,212,1.0,2.0,84,0.00,,,0.00,weatherlink.com 1.10,2013-09-09 01:55:00,
2013-09-08 22:10:00,68.3,63.0,29.97,ENE,62,0.0,4.0,84,0.00,,,0.00,weatherlink.com 1.10,2013-09-09 02:10:00,
2013-09-08 22:25:00,68.0,63.0,29.97,North,351,0.0,4.0,85,0.00,,,0.00,weatherlink.com 1.10,2013-09-09 02:25:00,
2013-09-08 22:40:00,67.8,63.0,29.96,ESE,117,0.0,5.0,85,0.00,,,0.00,weatherlink.com 1.10,2013-09-09 02:40:00,
2013-09-08 22:55:00,67.6,63.0,29.96,North,9,1.0,4.0,85,0.00,,,0.00,weatherlink.com 1.10,2013-09-09 02:55:00,
2013-09-08 23:10:00,67.3,63.0,29.97,ENE,60,2.0,5.0,85,0.00,,,0.00,weatherlink.com 1.10,2013-09-09 03:10:00,
2013-09-08 23:25:00,67.1,63.0,29.97,SSE,155,0.0,3.0,85,0.00,,,0.00,weatherlink.com 1.10,2013-09-09 03:25:00,
2013-09-08 23:40:00,66.9,62.0,29.98,ESE,122,1.0,5.0,85,0.00,,,0.00,weatherlink.com 1.10,2013-09-09 03:40:00,
2013-09-08 23:55:00,66.7,62.0,29.98,NE,53,3.0,4.0,85,0.00,,,0.00,weatherlink.com 1.10,2013-09-09 03:55:00,